Powrót do katalogu

COSMOS 2251 DEB

AktywnyLEO
NORAD 36529·DEBRIS·🇷🇺 Russia

Wystrzelony Jun 16, 1993 z Plesetsk Cosmodrome

Loading…

Następne Przeloty (najbliższe 24 godziny)

TLE

ŚwieżeSource: Space-Track

Epoka: Sep 14, 2026, 10:16 UTC

1 36529U 93036BCP 26257.42809204  .00049295  00000-0  42394-2 0  9990
2 36529  74.0020 161.4738 0050025 170.1592 313.7779 14.96174371652426

Śledź COSMOS 2251 DEB w czasie rzeczywistym z AllMySat

Download on the App Store